2022-098J (53452 NORAD) Tracking and Keplerian Element Data

This shows tracking and keplerian element data for the satellite.

Feedback or suggestion? Click here.




ElementValue
Catalog53452
Name2022-098J
Epoch Orbit1550
Epoch Day325.0572587
Epoch Year2022
RAAN59.5934
Inclination97.5282
Eccentricity0.0005433
Argument of Perigee303.2074
Mean Anonmoly182.4933
Mean Motion15.09758069
Decay Rate4.212E-05
L11 53452U 22098J 22325.05725870 .00004212 00000+0 26483-3 0 9992
L22 53452 97.5282 59.5934 0005433 303.2074 182.4933 15.09758069 15504



Live tracking and technical data element details for 2022-098J (NORAD 53452). 2022-098J can be tracked NOW for your location showing map with azimuth and elevation plus other details from your city location.







IsCatalogInMostPopularTable: catalog: 53452, numindb: 22
Update: records affected: 1



GetName: 53452 2022-098J

Hit Count: updated at: Thu, 08 Dec 2022 09:35:24 GMT